Simultaneous Nadir Overpasses (SNOs) Predictions

Prediction of SNOs between AQUA and NOAA-19 Satellite Orbit:

Table of predicted SNOs for the next 14.0 days since TLE Epoch: 12/19/2015
Index Date (AQUA) Time (AQUA) Lat,Lon (AQUA) SZA (AQUA ) Date (NOAA-19) Time (NOAA-19) Lat,Lon (NOAA-19) SZA (NOAA-19 ) Distance(km) Time Diff (sec)
1 12/20/2015 15:45:46 -80.62, 87.03 74.32 12/20/2015 15:45:13 -80.62, 87.16 74.32 2.32 33
2 12/20/2015 16:35:12 80.60,-105.14 105.66 12/20/2015 16:36:08 80.60,-105.27 105.65 2.28 56
3 12/22/2015 21:19:31 80.61,-176.33 105.71 12/22/2015 21:19:20 80.62,-176.34 105.72 0.70 11
4 12/25/2015 02:53:16 -80.61, -79.75 74.31 12/25/2015 02:53:37 -80.61, -79.68 74.32 1.13 21
5 12/27/2015 07:37:36 -80.67,-151.41 74.25 12/27/2015 07:36:51 -80.66,-151.53 74.22 2.26 45
6 12/27/2015 08:27:01 80.62, 16.69 105.68 12/27/2015 08:27:44 80.62, 16.71 105.65 0.98 43
7 12/29/2015 13:11:20 80.66, -54.75 105.65 12/29/2015 13:10:57 80.65, -54.80 105.67 1.07 23
8 12/29/2015 14:00:11 -79.45, 123.38 76.31 12/29/2015 14:01:25 -79.80, 124.82 76.12 48.40 74




NCC Satellite Simultaneous Nadir Overpasses (SNOs) Prediction Service
